Flag for U.S.A. Weather past 2 weeks in Cleveland, Tennessee, U.S.A.

64 °F


Feels Like: 64 °F
Forecast: 58 / 70 °F
Wind: 17 mph from Northwest

Location: Lovell Field

Current Time: Oct 10, 2015 at 2:11:38 PM

Latest Report: Oct 10, 2015 at 1:53 PM

Visibility: 10 mi

Pressure: 30.05 "Hg

Humidity: 84%

Dew point: 59 °F

Location of ClevelandLocation

Historic Weather in Cleveland — Graph


Cleveland temperature yesterday

Maximum temperature yesterday: 80 °F (at 2:53 PM)
Minimum temperature yesterday: 65 °F (at 7:53 AM)
Average temperature yesterday: 70 °F

Past Weeks' High & Low Weather Summary

High85 °F (Oct 7, 3:53 PM)100% (Oct 3, 11:53 AM)30.17 "Hg (Oct 3, 11:53 AM)
Low57 °F (Oct 3, 7:53 AM)45% (Oct 7, 3:53 PM)29.72 "Hg (Oct 3, 4:53 PM)
Average69 °F84%29.95 "Hg
* Reported Sep 25 12:53 PM — Oct 10 12:53 PM, Cleveland, Weather by CustomWeather, © 2015

Note: Actual official high and low records may vary slightly from our data, if they occured in-between our weather recording intervals... More about our weather records


Cleveland weather history for previous 24 hours

Time TempWeatherWind HumidityBarometerVisibility
12:53 PM
Sat, Oct 10
66 °FLight rain. Broken clouds.12 mph84%30.06 "Hg7 mi
11:53 AM64 °FLight rain. Fog.9 mph87%30.06 "Hg6 mi
10:53 AM63 °FLight rain. Fog.8 mph93%30.06 "Hg3 mi
9:53 AM63 °FLight rain. Fog.3 mph93%30.05 "Hg4 mi
8:53 AM62 °FLight rain. Fog.No wind93%30.03 "Hg2 mi
7:53 AM62 °FRain. Fog.No wind93%30.03 "Hg2 mi
6:53 AM62 °FPartly cloudy.No wind90%30.02 "Hg7 mi
5:53 AM62 °FLight rain. Overcast.6 mph90%30.01 "Hg7 mi
4:53 AM62 °FLight rain. Mostly cloudy.9 mph90%30.00 "Hg8 mi
3:53 AM63 °FLight rain. Overcast.6 mph93%30.01 "Hg8 mi
2:53 AM64 °FLight rain. Mostly cloudy.6 mph94%30.03 "Hg9 mi
1:53 AM64 °FRain. Fog.8 mph97%30.04 "Hg5 mi
1:00 AM64 °FRain. Fog.No wind97%30.08 "Hg3 mi
11:53 PM
Fri, Oct 9
65 °FRain. Mostly cloudy.9 mph91%30.06 "Hg7 mi
10:53 PM66 °FLight rain. Overcast.9 mph90%30.06 "Hg9 mi
9:53 PM66 °FRain. Fog.6 mph93%30.05 "Hg6 mi
8:53 PM66 °FStrong thunderstorms. Fog.7 mph93%30.04 "Hg2 mi
7:53 PM68 °FThunderstorms. Broken clouds.3 mph93%29.99 "Hg10 mi
6:53 PM71 °FBroken clouds.5 mph87%29.98 "Hg10 mi
5:53 PM74 °FThunderstorms. Broken clouds.7 mph82%29.98 "Hg10 mi
4:53 PM80 °FBroken clouds.8 mph56%29.99 "Hg10 mi
3:53 PM80 °FBroken clouds.3 mph54%30.00 "Hg10 mi
2:53 PM80 °FBroken clouds.5 mph56%30.03 "Hg10 mi
Weather by CustomWeather, © 2015

See weather overviewHow to use our weather pages